Temp
14 15 15 15 15 15 15 15 15 14 14 14 14 14 14 14 14 14 14 14 14 14 14 14 14 14 14 14 14 14 14 14 14 14 14 14 13 13 13 13 13 13 13 13 13 12 12 12 12 12 12 12 12 12 12 12 12 12 12 12 13 13 13 13 12 12 12 12 12
14 14 14 14 14 14 14 14 14 14 14 14 14 14 14 14 14 14 14 14 14 14 14 14 14 14 14 14 14 14 14 14 14 14 13 13 13 13 13 13 13 13 13 13 13 13 12 12 12 12 12 12 12 12 12 12 12 12 13 13 13 13 13 13 12 12 12 12 12
14 14 14 14 14 14 13 13 13 13 13 13 13 13 13 13 13 13 13 13 13 13 13 13 13 13 13 13 13 13 13 13 13 13 13 13 13 13 13 13 13 13 13 13 13 13 13 12 12 12 12 12 12 12 12 12 12 12 13 13 13 13 13 13 12 12 12 12 12
13 13 13 13 13 13 13 13 12 12 12 13 13 13 13 13 13 13 13 13 13 13 13 13 13 13 13 13 13 13 13 13 13 13 13 13 13 13 13 13 13 13 13 13 13 13 13 12 12 12 12 12 12 12 12 12 11 12 12 12 12 12 12 12 12 12 12 12 12
12 12 12 12 12 12 13 13 13 13 13 13 14 14 14 14 13 13 13 13 13 13 13 13 13 13 13 13 13 13 13 13 13 13 13 13 13 13 13 13 13 13 13 12 12 12 12 12 12 12 12 12 12 12 12 12 11 11 11 11 12 12 12 12 12 12 12 12 12
12 12 12 13 13 13 13 13 13 13 13 13 13 13 13 13 13 13 13 13 13 13 13 13 13 13 13 13 13 13 13 13 13 13 13 13 13 13 13 13 13 13 12 12 12 12 12 12 12 12 12 12 12 12 12 12 11 11 11 11 11 11 11 12 12 12 12 12 12
12 12 12 13 13 13 13 13 13 13 13 13 12 12 12 12 12 12 12 12 12 12 12 12 12 12 13 13 13 13 13 13 13 13 13 13 13 13 13 12 12 12 12 12 12 12 12 12 11 11 12 12 12 12 12 12 11 11 11 11 11 11 11 11 11 12 12 12 12
12 12 12 12 12 12 12 12 12 12 12 12 12 12 12 12 12 12 12 12 12 12 12 12 12 12 12 13 13 13 13 13 13 12 12 12 12 12 12 12 12 12 12 12 12 11 11 11 11 11 11 11 11 11 11 11 11 11 11 11 11 11 11 11 11 11 11 12 12
11 11 12 12 12 12 12 12 12 12 12 11 11 11 11 11 12 12 12 11 11 12 12 12 12 12 12 12 12 12 12 12 12 12 12 12 12 12 12 12 12 12 11 11 11 11 11 11 11 11 11 11 11 11 11 11 11 11 11 11 11 10 10 10 10 10 11 11 11
11 11 11 11 11 11 12 12 12 12 11 11 11 11 11 11 11 11 11 11 11 12 12 12 12 12 12 12 12 12 11 11 11 11 11 11 11 11 11 11 11 11 11 11 11 11 11 11 10 10 10 10 10 10 10 11 11 11 11 10 10 10 10 10 10 10 10 10 11
11 11 11 11 11 11 12 12 12 11 11 11 11 11 11 11 11 11 11 11 11 11 11 11 11 11 11 11 11 11 11 11 11 11 11 11 11 11 11 11 11 11 11 11 11 11 11 11 11 10 10 10 10 10 10 10 10 10 10 10 10 10 10 10 10 10 10 10 10
10 11 11 11 11 12 12 12 11 11 11 11 10 10 10 10 10 10 11 11 11 11 11 11 11 11 11 11 11 11 11 11 11 12 12 12 12 12 12 12 12 12 12 12 12 12 11 11 11 11 11 10 10 10 10 10 10 10 10 10 10 10 10 10 10 10 10 10 10
10 11 11 11 11 11 11 11 11 10 10 10 10 10 10 10 10 10 10 11 11 11 11 11 11 11 11 11 11 11 11 11 12 12 12 12 12 12 12 12 12 12 12 12 12 12 11 11 11 11 11 11 11 10 10 10 9 9 9 10 10 10 10 10 10 10 10 10 10
10 10 10 10 11 11 11 10 10 10 9 9 9 9 9 10 10 10 10 10 10 10 10 11 11 11 11 11 11 11 11 11 11 11 12 12 12 12 12 12 12 11 11 11 11 11 11 11 11 11 10 10 10 10 10 10 10 9 9 9 9 10 10 10 10 10 10 10 10
9 9 9 10 10 10 10 9 9 9 9 9 9 9 9 9 9 10 10 10 10 10 10 10 10 10 10 10 10 10 10 11 11 11 11 11 11 11 11 11 11 10 10 10 11 11 10 10 10 10 10 10 10 10 10 10 10 9 9 9 9 9 10 10 10 10 10 10 10
9 9 9 9 9 9 9 8 8 8 8 8 8 8 9 9 9 9 9 9 9 10 10 10 10 10 10 10 10 10 10 10 10 10 10 10 10 10 10 10 9 9 9 9 10 10 10 9 9 9 9 9 9 9 9 9 9 9 9 9 9 9 9 9 10 10 10 10 10
8 8 8 8 8 8 8 8 7 7 7 8 8 8 8 8 8 8 8 8 9 9 9 9 9 9 9 9 9 9 9 9 9 9 8 8 8 8 8 8 8 8 8 8 8 9 9 9 9 8 8 8 8 8 8 8 8 9 9 9 9 9 9 9 9 9 10 10 10
7 7 7 7 7 7 7 7 7 7 7 7 7 7 7 7 7 8 8 8 8 8 8 8 8 8 8 8 8 8 8 8 8 8 7 7 7 7 7 7 7 7 7 7 7 8 8 8 8 8 8 8 7 7 8 8 8 8 8 8 8 9 9 9 9 9 9 9 10
6 6 6 6 6 6 6 6 6 6 6 6 6 6 7 7 7 7 7 7 7 7 7 7 8 8 8 7 7 7 7 7 7 7 7 6 6 6 7 7 7 7 7 7 7 7 7 7 7 7 7 7 7 7 7 7 7 7 7 8 8 8 8 8 9 9 9 9 9
5 5 5 5 5 5 5 5 5 5 5 6 6 6 6 6 6 6 6 6 6 6 7 7 7 7 7 7 7 7 6 6 6 6 6 6 6 6 6 6 6 6 6 6 6 6 6 6 6 6 6 6 6 6 6 6 7 7 7 7 7 8 8 8 8 8 8 9 9
5 5 5 5 5 5 5 5 5 5 5 6 6 6 6 6 6 6 6 6 6 6 6 6 6 6 6 6 6 6 5 5 5 5 5 5 5 5 5 5 5 5 5 6 6 5 5 5 5 5 5 5 6 6 6 6 6 6 6 6 7 7 7 7 8 8 8 8 8
4 4 5 5 5 5 5 5 5 5 6 6 6 6 6 6 6 5 5 5 5 5 5 5 5 5 5 5 5 5 5 5 5 5 5 5 5 5 5 5 5 5 5 5 5 5 5 5 5 5 5 5 5 5 5 5 6 6 6 6 6 7 7 7 7 7 8 8 8
4 4 5 5 5 5 5 5 5 6 6 6 5 5 5 5 5 5 5 5 5 5 5 5 5 4 4 4 4 4 4 4 4 5 5 4 4 5 5 5 5 5 4 4 4 4 4 4 4 4 4 5 5 5 5 5 5 5 5 6 6 6 6 6 7 7 7 7 8
4 4 5 5 5 5 5 5 5 5 5 5 5 5 5 5 5 5 5 5 5 4 4 4 4 4 4 4 4 4 4 4 4 4 4 4 4 4 4 4 4 4 4 4 4 4 4 4 4 4 4 4 4 5 5 5 5 5 5 5 5 5 6 6 6 6 7 7 7
4 4 4 5 5 5 5 5 5 4 4 4 4 4 4 4 4 4 4 4 4 4 4 4 4 4 4 4 4 4 4 4 4 4 4 4 4 4 4 4 4 4 4 4 4 4 4 4 4 4 4 4 4 4 4 4 4 5 5 5 5 5 5 5 6 6 6 6 7
4 4 4 4 4 4 4 4 4 4 4 4 4 4 4 4 4 4 4 4 4 4 4 4 4 4 4 4 4 4 4 4 3 3 4 4 4 4 4 4 3 3 3 3 3 3 3 3 3 3 4 4 4 4 4 4 4 4 4 4 4 4 5 5 5 5 6 6 6
3 3 3 4 4 4 3 3 3 3 3 3 3 3 3 3 3 4 4 4 4 4 4 4 4 4 4 4 4 4 3 3 3 3 3 3 3 3 3 3 3 3 3 3 3 3 3 3 3 3 3 3 3 4 4 4 4 4 4 4 4 4 4 4 5 5 5 5 5
3 3 3 3 3 3 3 3 3 3 3 3 3 3 3 3 3 3 3 4 4 4 4 4 4 3 3 3 3 3 3 3 3 3 3 3 3 3 3 3 2 2 2 2 2 2 2 3 3 3 3 3 3 3 3 3 3 3 3 3 4 4 4 4 4 4 4 4 5
3 3 3 3 3 3 3 3 3 3 3 3 3 3 3 3 3 3 3 3 3 3 3 3 3 3 2 2 2 2 2 2 2 2 2 2 2 2 2 2 2 2 2 2 2 2 2 2 2 3 3 3 3 3 3 3 3 3 3 3 3 3 3 3 3 3 3 3 4
3 3 3 3 3 3 3 3 3 3 3 2 2 2 2 2 2 2 2 2 2 2 2 2 2 2 2 2 1 1 1 1 1 1 1 1 1 1 1 1 1 1 1 1 2 2 2 2 2 2 3 3 3 3 3 3 3 3 3 3 3 3 3 3 3 3 3 3 3
3 3 3 3 3 3 3 2 2 2 2 2 2 2 2 2 2 2 1 1 1 1 1 1 1 1 1 1 1 1 1 1 1 1 1 1 1 1 1 1 1 1 1 1 1 2 2 2 2 2 2 2 2 2 2 2 2 2 2 2 2 2 2 2 2 2 3 3 3
3 3 2 2 2 2 2 2 2 2 2 2 2 1 1 1 1 1 1 1 1 1 1 1 1 1 1 0 0 0 0 0 0 0 0 0 0 0 0 0 0 0 1 1 1 1 2 2 2 2 2 2 2 2 2 2 2 2 2 2 2 2 2 2 2 2 2 2 2
2 2 2 2 2 2 2 2 2 2 1 1 1 1 1 1 1 1 1 0 0 0 0 0 0 0 0 0 0 0 0 0 0 0 -0 -0 -0 -0 -0 -0 -0 0 0 1 1 1 1 1 1 1 2 2 2 2 2 2 2 2 2 2 2 2 2 2 2 2 2 2 2
2 2 2 2 2 2 2 1 1 1 1 1 1 1 0 0 0 0 0 0 0 0 0 0 -0 -0 -0 -0 -0 -0 -0 -0 -0 -0 -0 -0 -0 -0 -0 -0 -0 -0 0 0 0 1 1 1 1 1 1 2 2 2 2 2 2 2 2 2 2 2 2 2 2 2 2 2 2
2 2 2 2 2 1 1 1 1 1 1 1 0 0 0 -0 -0 -0 -0 -0 -0 -0 -0 -0 -0 -0 -0 -0 -0 -0 -0 -0 -0 -0 -0 -0 -0 -0 -0 -0 -0 -0 -0 -0 0 0 0 1 1 1 1 1 1 1 1 1 1 1 2 2 2 2 2 2 2 2 2 3 3
2 2 2 1 1 1 1 1 1 1 0 0 0 -0 -0 -0 -0 -0 -0 -0 -0 -0 -0 -0 -0 -0 -0 -0 -0 -0 -0 -0 -0 -0 -0 -1 -1 -1 -1 -1 -1 -0 -0 -0 -0 0 0 0 1 1 1 1 1 1 1 1 1 1 1 2 2 2 2 2 2 2 2 3 3
2 1 1 1 1 1 1 1 1 0 0 -0 -0 -0 -0 -0 -0 -0 -1 -1 -1 -1 -1 -1 -1 -1 -1 -1 -1 -1 -1 -1 -1 -1 -1 -1 -1 -1 -1 -1 -1 -1 -0 -0 -0 -0 0 0 0 1 1 1 1 1 1 1 1 1 1 1 2 2 2 2 2 2 2 2 3
1 1 1 1 1 1 1 0 0 0 -0 -0 -0 -1 -1 -1 -1 -1 -1 -1 -1 -1 -1 -1 -1 -1 -1 -1 -1 -1 -1 -1 -1 -1 -1 -1 -1 -1 -1 -1 -1 -1 -1 -0 -0 -0 -0 0 0 0 1 1 1 1 1 1 1 1 1 1 2 2 2 2 2 2 2 2 3
1 1 1 1 1 0 0 0 0 -0 -0 -0 -0 -1 -0 -1 -1 -1 -1 -1 -1 -1 -1 -1 -1 -1 -1 -1 -1 -1 -1 -1 -1 -1 -1 -1 -1 -1 -1 -1 -1 -1 -1 -1 -1 -1 -0 -0 0 0 1 1 1 1 1 1 1 1 1 1 2 2 2 2 2 2 2 2 3
1 1 1 1 0 0 0 0 -0 -0 -0 -0 -0 -1 -1 -1 -1 -1 -1 -1 -1 -1 -1 -1 -1 -1 -1 -1 -1 -1 -1 -1 -1 -1 -1 -1 -1 -1 -1 -1 -1 -1 -1 -1 -1 -1 -0 -0 0 0 1 1 1 1 1 1 1 1 1 1 2 2 2 2 2 2 2 2 3
1 1 1 0 0 0 0 -0 -0 -0 -0 -0 -0 -1 -1 -1 -1 -1 -1 -1 -1 -1 -1 -1 -1 -1 -1 -2 -2 -2 -2 -1 -1 -1 -1 -1 -1 -1 -1 -1 -1 -1 -1 -1 -1 -1 -0 -0 0 0 0 1 1 1 1 1 1 1 1 1 1 2 2 2 2 2 2 2 3
Height
760 761 762 764 765 766 767 769 770 771 772 772 773 774 775 775 776 776 777 778 779 780 781 781 781 781 781 781 782 782 783 783 783 783 783 783 783 783 783 783 783 782 782 782 781 781 780 780 780 779 779 778 777 777 777 777 778 778 779 779 779 779 779 778 778 777 777 776 776
761 762 763 765 766 767 768 769 771 771 772 773 774 774 775 775 776 776 776 777 778 779 780 780 780 780 780 781 781 782 782 783 783 783 783 783 783 782 782 782 781 781 781 781 780 780 779 779 778 778 777 777 777 777 777 777 778 778 778 778 777 777 777 776 776 776 775 775 774
761 763 764 765 766 768 769 770 771 772 772 773 773 773 774 775 775 776 776 777 778 779 779 779 779 780 780 781 781 781 782 782 782 782 782 782 782 781 781 781 781 780 780 779 779 778 778 777 777 777 776 776 777 777 777 777 778 778 777 777 776 776 776 775 774 774 773 773 772
762 763 764 765 766 767 768 769 770 771 771 771 772 773 774 774 775 776 776 777 778 779 779 779 780 780 780 780 781 781 781 781 781 781 781 780 780 780 780 779 779 778 778 778 777 777 777 777 776 776 776 776 776 777 777 777 777 777 776 776 775 775 774 773 772 772 771 771 770
764 764 765 766 767 768 769 769 770 771 771 772 772 773 774 775 776 777 777 778 779 779 780 780 780 780 780 780 779 779 779 779 779 779 779 779 779 778 778 778 777 777 777 777 776 776 776 776 776 776 776 776 776 776 776 776 776 776 775 775 774 773 773 772 771 770 770 769 769
765 765 766 767 767 768 769 769 770 771 771 772 773 774 775 776 777 777 778 779 779 780 780 780 780 779 779 779 778 778 778 778 778 778 778 778 778 777 777 777 777 776 776 776 776 776 776 776 776 776 776 776 775 775 775 775 774 774 773 773 772 772 771 771 770 769 769 768 767
766 766 767 767 768 769 769 770 771 771 772 773 774 775 776 777 777 778 779 779 779 779 779 779 779 778 778 777 777 777 777 777 777 777 777 777 777 777 777 776 776 776 776 775 775 775 775 776 775 775 775 774 774 774 773 773 773 772 771 771 770 770 770 769 769 768 767 767 766
767 767 768 769 769 770 771 771 772 772 773 774 775 776 776 777 778 778 778 779 779 778 778 778 778 777 777 776 776 776 776 776 776 776 776 776 776 776 776 776 775 775 775 775 774 774 774 774 774 774 774 773 773 772 772 771 771 770 770 769 768 768 768 768 767 767 766 766 765
768 769 770 770 771 771 771 772 772 773 773 774 775 776 776 777 777 777 778 778 778 778 777 777 777 776 776 776 776 776 776 776 776 776 776 776 775 775 775 774 774 774 774 774 774 773 773 773 773 772 772 772 771 771 770 770 769 768 768 767 767 766 766 766 766 766 765 765 764
769 770 771 771 771 772 772 772 773 773 774 775 775 776 776 776 777 777 777 777 777 777 776 776 776 776 776 776 776 776 776 776 776 775 775 774 774 774 773 773 773 772 772 772 772 772 772 771 771 771 771 770 770 769 768 767 767 766 766 766 765 765 764 764 764 764 763 763 763
770 771 771 771 772 772 772 773 773 773 774 775 775 776 776 776 776 776 777 777 776 776 776 776 776 776 775 775 775 775 775 774 774 773 773 772 772 771 771 771 771 770 770 770 770 770 770 769 769 769 768 768 767 767 766 765 765 764 764 763 763 763 762 762 762 762 762 762 761
771 771 771 772 772 772 772 773 773 773 774 774 775 775 775 775 776 776 776 776 776 775 775 775 775 774 774 774 773 773 773 772 772 771 771 770 769 769 769 768 768 767 767 767 767 767 767 766 766 766 766 765 765 764 764 763 763 762 761 761 761 761 761 760 761 761 761 761 761
771 772 772 772 773 773 773 773 773 774 774 774 774 775 775 775 775 775 775 775 775 775 774 774 774 773 773 773 772 772 771 771 770 770 769 768 768 767 766 766 766 766 765 765 765 765 765 764 764 764 763 763 762 762 762 761 761 761 760 760 759 759 759 759 759 759 759 759 759
772 773 773 773 773 773 773 773 774 774 774 774 775 775 775 775 775 775 775 775 774 774 774 774 773 773 772 772 772 771 771 770 770 769 768 768 767 766 766 766 765 765 764 764 764 764 763 763 763 762 762 761 761 761 760 760 759 759 759 759 758 758 758 758 758 758 758 758 757
773 774 774 774 774 774 774 774 774 775 775 775 775 775 775 775 775 775 775 774 774 774 774 773 773 772 772 772 771 771 771 770 769 769 768 767 767 766 766 766 765 765 764 764 763 763 763 763 762 762 762 761 760 760 759 759 758 758 758 757 757 757 757 756 756 756 756 756 756
774 774 775 775 775 775 775 775 775 775 775 775 776 776 775 775 775 775 775 774 774 774 773 773 772 772 772 771 771 771 770 770 769 768 768 767 767 766 766 765 765 764 764 763 763 763 763 762 762 762 761 761 760 759 758 758 757 757 756 756 756 756 756 755 755 755 755 755 754
775 775 775 775 775 775 775 776 776 776 776 776 776 776 776 775 775 775 775 774 774 773 773 772 772 772 771 771 771 770 770 769 768 768 767 767 766 766 765 765 765 764 764 763 763 762 762 762 762 761 761 761 760 759 758 757 756 756 756 756 755 755 755 754 754 753 753 753 752
775 775 775 775 776 776 776 776 776 776 776 776 776 776 776 775 775 775 774 774 773 773 772 772 772 771 771 770 770 769 769 768 768 767 767 767 766 766 765 765 764 764 763 763 762 762 762 761 761 761 760 760 759 758 757 757 756 755 755 754 754 754 753 753 752 752 751 751 751
776 776 776 776 776 776 776 776 776 776 776 776 776 776 776 775 775 775 774 773 773 773 772 771 771 771 771 770 770 769 769 768 768 767 767 766 766 766 765 764 764 763 763 763 762 762 761 761 761 760 760 759 758 757 757 756 755 754 754 753 753 752 752 751 751 751 750 750 749
776 776 776 776 777 777 776 776 776 776 776 776 776 776 775 775 775 774 774 773 773 773 772 771 771 770 770 770 769 769 768 768 767 767 766 766 766 765 765 764 764 763 763 762 762 761 761 761 760 759 759 758 757 756 756 755 754 753 753 752 751 751 751 750 750 749 749 748 748
777 777 777 777 777 777 777 777 777 776 776 776 776 775 775 775 774 774 774 773 773 773 772 771 771 771 770 769 769 769 768 768 767 767 766 766 766 765 765 764 763 763 762 762 761 761 760 760 759 759 758 757 756 756 755 754 753 752 751 751 750 750 749 749 748 747 747 746 746
777 778 778 778 777 777 777 777 777 776 776 776 776 776 775 775 775 774 774 774 773 773 772 772 771 771 770 770 769 769 768 768 767 767 766 766 765 765 764 764 763 762 761 761 760 760 759 759 758 757 757 756 755 754 753 753 752 751 750 749 748 748 747 747 746 746 745 745 744
778 778 778 778 778 778 777 777 777 777 776 776 776 776 776 776 775 775 775 774 774 773 773 772 771 771 771 770 769 769 768 767 767 766 766 766 765 764 764 763 762 761 761 760 760 759 758 757 757 756 756 755 754 753 752 751 751 750 748 747 746 746 745 745 744 743 743 742 742
779 779 779 778 778 778 778 778 778 777 777 777 777 776 776 776 776 775 775 774 774 773 772 772 771 771 770 770 769 769 768 767 766 766 765 765 764 764 763 762 761 761 760 760 759 759 758 757 756 755 755 754 753 752 751 750 749 748 747 746 745 744 743 742 741 741 741 740 739
780 780 779 779 779 779 779 779 778 778 778 778 777 777 776 776 775 775 774 774 773 772 772 771 771 770 770 769 769 768 767 767 766 765 764 764 763 763 762 761 761 760 760 759 758 758 758 757 756 755 754 753 752 751 750 749 748 747 746 745 743 742 741 740 739 739 738 738 737
781 780 780 780 780 780 779 779 779 778 778 778 777 776 776 776 775 774 774 773 772 772 771 771 770 770 769 768 768 767 767 766 766 765 764 763 762 761 761 761 760 759 759 758 757 757 756 756 755 755 753 752 751 749 748 747 746 745 744 743 742 741 740 738 737 736 736 736 735
781 781 781 781 780 780 779 779 778 778 777 777 776 776 776 775 774 774 773 772 772 771 771 770 770 769 768 768 767 766 766 766 765 764 764 763 762 761 760 760 759 758 758 757 756 756 755 754 753 753 752 751 750 748 747 745 744 743 742 741 740 739 738 737 736 735 735 734 733
781 781 781 780 780 779 779 778 778 777 777 776 776 776 775 774 774 773 772 772 771 771 770 770 769 769 768 767 767 766 766 765 765 764 763 762 761 761 760 759 758 757 757 756 755 754 754 753 752 751 751 750 749 747 746 744 743 742 741 740 739 738 737 736 735 734 733 733 732
781 781 780 780 779 779 778 778 777 777 776 776 776 775 775 774 773 773 772 771 771 770 770 769 769 768 767 767 766 766 765 765 764 763 762 761 761 760 759 758 757 756 756 755 754 753 753 752 751 750 749 749 748 746 745 743 742 741 740 738 737 737 736 735 734 733 732 731 731
781 780 780 779 779 778 778 777 777 777 776 776 776 775 774 774 773 772 772 771 771 770 770 769 768 768 767 766 766 765 764 764 763 762 761 761 760 759 758 757 756 755 755 754 753 752 751 751 750 749 748 747 746 745 743 742 741 739 738 737 736 735 734 733 733 732 731 730 730
780 780 779 779 779 778 778 777 777 777 776 776 776 775 774 774 773 772 772 771 770 770 769 768 768 767 766 766 765 764 763 762 762 761 760 760 758 757 756 756 755 754 753 752 752 751 750 749 748 747 746 746 745 743 742 741 739 738 737 736 735 734 733 732 731 730 730 729 728
780 780 779 779 779 778 778 778 777 777 776 776 775 775 774 773 773 772 771 771 770 769 768 767 767 766 765 765 764 763 762 761 761 760 759 758 757 756 755 754 753 753 752 751 751 750 749 748 747 746 745 744 743 741 740 739 737 736 735 734 733 732 731 730 729 728 728 727 726
780 780 780 779 779 779 778 778 777 777 776 776 775 774 774 773 772 771 771 770 769 768 768 767 766 765 764 764 763 762 761 760 759 759 758 757 756 755 754 752 752 751 751 750 749 748 747 746 745 744 743 742 741 740 738 737 736 734 733 731 731 730 729 728 727 726 726 725 724
781 780 780 780 779 779 778 778 777 776 776 775 775 774 773 772 771 771 770 769 768 768 767 766 766 765 764 763 762 761 759 758 758 757 756 755 754 753 752 751 750 750 749 748 747 746 745 744 743 742 741 740 739 737 736 735 733 732 731 729 728 728 727 726 725 724 723 723 722
781 780 780 780 779 779 778 777 777 776 775 774 774 773 772 771 771 770 769 768 767 766 766 765 764 763 762 761 760 759 758 757 756 755 754 753 752 751 750 749 748 747 747 746 745 744 743 742 741 741 739 738 737 736 734 732 731 730 728 727 726 725 725 724 723 722 721 720 719
781 780 780 779 779 778 777 777 776 775 774 773 772 772 771 770 769 769 768 767 766 765 764 763 762 761 760 759 758 757 757 756 754 753 752 751 751 749 748 746 745 745 744 744 743 742 741 741 740 739 737 736 735 733 732 731 729 727 726 725 724 723 722 721 721 720 719 718 717
781 780 779 779 778 777 777 776 775 774 773 772 771 771 770 769 768 767 766 765 764 763 762 761 760 759 758 757 756 756 755 754 753 751 750 750 749 747 746 744 743 742 742 741 741 740 739 738 738 737 736 734 733 731 730 728 727 725 724 723 721 720 720 719 718 717 716 715 714
780 780 779 778 777 776 776 775 774 773 772 771 770 769 768 767 766 766 765 764 763 761 760 759 758 757 756 756 755 753 753 752 751 751 749 748 747 746 745 743 741 740 740 739 739 738 737 736 736 735 734 733 731 730 728 726 725 723 722 720 719 718 717 716 715 714 713 712 711
780 779 778 777 776 776 775 774 773 772 771 770 769 767 766 766 765 764 763 762 761 761 759 758 757 756 755 754 753 752 751 750 750 749 748 747 746 745 744 742 740 739 738 737 737 736 735 735 734 733 733 731 730 728 726 725 723 721 720 718 717 715 714 714 713 711 710 709 709
779 778 777 776 776 775 774 772 771 771 770 768 767 766 765 764 763 763 762 761 760 759 758 757 756 755 754 753 752 751 749 748 748 747 746 746 744 744 742 741 739 737 736 736 735 735 734 733 732 731 731 730 729 727 726 724 721 720 718 716 715 713 711 710 710 709 707 706 706
778 777 776 776 775 773 772 771 770 769 768 767 766 765 764 763 762 761 761 760 759 758 757 756 755 754 753 752 751 750 748 747 746 746 745 744 743 742 741 740 738 736 735 734 734 733 732 731 731 730 729 729 727 726 724 722 720 718 716 715 714 712 710 708 707 706 705 704 703
Wind_Speed
12 11 10 9 9 9 8 8 8 8 8 9 9 9 8 7 6 4 3 1 0 0 1 1 2 3 3 4 4 5 5 6 6 7 7 7 7 7 7 7 7 8 8 8 9 9 9 9 9 10 10 11 13 14 14 14 14 15 16 17 18 18 19 19 20 19 19 20 20
12 11 10 9 8 8 7 7 7 7 7 7 6 5 4 3 1 1 1 1 1 2 2 3 3 4 4 4 4 5 5 6 6 6 7 7 7 8 8 8 8 8 8 9 9 9 9 9 9 10 10 11 12 12 13 14 15 16 18 18 19 19 19 19 19 19 19 19 19
15 14 13 12 11 10 9 8 7 6 6 6 6 5 5 5 5 6 6 5 5 5 5 5 5 5 4 3 2 2 3 3 4 4 5 5 6 7 8 8 9 9 10 10 10 10 11 11 11 11 11 11 12 12 12 13 14 16 19 20 20 19 19 19 19 19 18 18 19
20 19 18 17 17 17 16 16 16 16 15 15 14 14 14 13 13 12 11 10 9 9 8 7 6 5 4 4 3 3 2 3 4 4 5 5 6 6 7 7 8 9 10 10 11 11 11 11 11 12 12 12 12 12 12 12 12 14 16 18 19 20 20 20 20 19 19 19 19
24 23 23 22 22 22 21 21 20 20 19 18 17 17 16 15 14 13 12 11 10 9 8 7 6 6 5 4 4 4 4 4 5 5 6 6 7 7 7 7 7 8 9 9 10 11 11 11 12 12 12 13 12 12 12 11 12 13 14 15 17 18 19 20 20 20 20 20 20
25 24 23 22 21 21 20 19 18 18 17 16 16 16 15 14 13 12 11 11 10 9 8 7 6 5 5 4 4 4 4 4 5 5 6 6 7 7 7 7 7 7 8 8 9 9 10 11 11 12 13 13 14 13 13 12 12 12 13 14 15 16 18 19 20 20 21 21 21
25 24 23 22 21 20 20 19 18 17 17 16 16 16 15 14 13 12 11 10 9 9 8 7 7 6 5 4 4 4 4 4 5 5 5 6 6 7 7 7 7 7 8 8 8 8 9 10 11 12 13 14 14 14 14 13 13 13 13 14 14 15 16 17 18 20 21 22 23
25 25 24 23 22 21 20 19 19 18 18 17 17 16 15 14 13 12 11 11 10 9 9 8 7 7 6 5 5 5 5 5 5 5 5 6 6 7 7 7 8 8 8 8 9 8 9 9 10 11 12 13 14 14 14 14 14 14 14 15 15 15 15 16 17 18 19 21 22
24 23 22 22 21 20 20 19 19 18 18 18 17 16 14 14 13 12 12 12 11 10 9 8 8 7 7 7 7 7 7 7 7 7 7 7 7 8 8 8 9 9 9 10 10 10 10 10 10 10 11 12 13 14 14 14 14 15 15 16 16 16 16 16 17 17 18 20 21
23 22 21 20 20 19 18 18 18 18 17 17 16 15 14 13 13 12 12 11 10 9 9 9 9 8 8 8 9 9 9 9 9 9 9 9 9 9 10 10 10 10 11 11 11 11 11 12 12 11 11 12 13 14 15 15 15 16 16 17 17 17 17 17 17 17 18 19 20
21 20 19 19 18 17 16 17 17 16 16 16 15 14 13 13 13 12 11 10 10 10 11 10 10 10 10 11 11 11 11 11 11 11 11 11 11 11 12 12 12 12 12 13 13 13 13 14 14 14 14 14 15 15 16 16 17 17 18 18 19 19 18 18 17 17 17 18 19
20 19 18 17 16 15 15 16 16 16 15 15 15 14 14 13 13 12 11 10 11 11 12 11 11 12 12 12 12 12 13 13 13 14 14 14 14 14 14 14 14 14 15 15 15 15 15 16 16 17 17 17 17 18 18 18 18 18 19 20 20 20 19 19 18 18 18 18 19
19 18 17 16 15 15 15 16 16 16 15 15 15 14 14 14 13 12 12 12 12 12 12 12 12 12 13 13 13 13 14 14 14 15 15 15 16 16 16 16 16 16 16 16 16 16 17 17 18 18 19 19 20 19 19 20 19 19 19 20 20 20 20 20 20 19 18 18 19
18 18 17 16 15 15 16 16 16 16 16 15 15 15 14 14 13 13 13 13 13 13 13 12 12 13 13 13 13 14 14 14 15 15 15 15 16 16 16 17 17 17 17 17 17 17 17 18 18 19 19 20 21 21 21 20 20 20 20 20 20 21 21 21 21 20 19 19 19
18 18 17 16 16 16 16 17 17 16 16 16 15 14 14 14 13 13 13 13 13 13 13 13 13 13 13 13 13 14 14 14 14 15 15 15 15 16 16 16 16 16 17 17 17 17 17 17 18 19 19 20 21 21 21 21 21 21 21 20 20 21 22 22 22 21 21 20 20
18 18 17 17 17 17 17 17 16 16 15 15 14 14 14 14 14 14 14 14 14 14 14 14 14 14 14 14 14 14 14 14 15 15 15 15 15 16 16 16 16 16 17 17 17 17 17 17 18 18 19 20 20 20 21 21 21 21 21 21 20 21 21 22 22 22 22 21 21
18 18 17 17 17 17 17 16 16 15 15 14 14 14 14 14 14 14 14 14 14 15 15 15 15 15 15 15 15 15 15 15 15 15 15 16 16 16 16 16 16 16 17 17 18 18 18 18 18 18 19 19 20 20 20 20 20 20 20 20 20 20 21 21 22 22 23 23 22
19 18 17 17 17 17 16 16 15 15 14 14 14 14 14 14 14 14 14 14 15 15 16 16 16 16 16 16 16 16 16 16 16 15 15 16 16 16 16 16 16 16 16 17 18 18 18 19 19 19 19 19 20 20 20 20 20 20 20 20 20 20 21 21 22 22 23 23 23
19 18 18 17 17 16 16 15 15 15 14 14 14 14 14 14 14 14 15 15 15 15 16 16 16 16 16 16 16 16 16 16 16 16 16 16 15 16 16 16 16 17 17 17 18 18 18 19 19 19 19 20 21 21 21 21 21 21 20 20 20 20 21 21 21 22 22 23 24
18 18 18 17 16 16 16 15 15 15 14 14 14 14 15 15 15 15 15 16 15 15 15 15 16 16 16 16 16 16 16 16 16 16 16 16 16 16 17 17 17 17 18 18 18 18 19 19 19 19 20 21 22 22 23 23 22 22 21 20 20 20 20 20 21 22 22 23 24
18 17 17 16 16 16 15 15 15 15 15 15 15 15 15 15 15 16 16 15 15 15 15 15 16 16 17 17 17 17 17 16 17 17 17 17 17 17 17 17 18 18 18 19 19 19 19 20 20 20 21 21 22 23 23 23 23 22 22 21 21 21 21 21 21 22 22 23 24
17 16 16 16 16 15 15 15 15 15 15 15 16 16 16 16 16 16 15 15 15 15 15 16 16 16 17 17 17 18 17 17 17 17 17 18 18 18 18 18 19 19 20 20 20 20 20 21 21 21 22 22 23 23 23 23 23 23 23 23 23 22 22 22 22 22 22 23 23
16 16 16 15 15 15 15 15 15 15 15 16 16 16 16 16 16 15 15 15 15 16 16 16 17 17 17 17 18 18 18 19 18 18 18 18 18 19 19 19 20 20 21 21 21 21 21 22 22 22 22 23 23 23 23 23 23 24 24 24 24 24 24 24 23 23 23 23 24
16 16 15 15 15 15 15 15 15 16 16 17 17 17 17 17 17 16 17 17 17 17 17 17 17 18 18 18 18 18 19 20 20 20 20 19 20 20 20 20 21 21 21 21 21 21 21 21 22 23 23 23 23 23 23 23 24 24 24 24 25 25 25 25 24 24 24 24 24
16 15 15 15 15 15 15 16 16 17 17 17 17 17 18 18 18 18 18 18 18 18 18 18 19 19 19 19 19 19 19 20 21 21 21 21 21 21 21 21 22 22 22 22 22 22 21 21 21 22 23 23 24 24 24 24 24 24 24 24 24 25 25 26 25 25 24 24 24
16 16 16 16 15 16 16 17 17 17 17 17 18 18 19 19 19 19 20 20 20 20 20 20 20 20 20 20 20 20 20 20 21 21 22 22 23 23 22 22 22 23 23 24 24 23 23 22 22 22 23 23 24 25 25 25 25 24 24 24 24 24 24 25 25 25 25 24 24
16 16 16 16 16 16 17 17 17 17 18 18 19 19 20 20 20 20 20 21 20 20 20 20 20 20 20 21 21 21 21 21 21 22 22 23 23 23 24 24 23 24 24 24 24 24 23 23 23 22 22 23 24 25 25 25 25 25 25 24 24 24 24 24 25 25 25 24 24
16 16 16 16 16 17 17 17 17 18 18 19 19 19 20 20 20 20 21 21 20 20 20 20 20 20 20 21 21 21 21 21 22 22 22 22 23 23 23 24 24 24 24 24 24 23 23 23 22 22 22 23 24 24 24 24 24 24 24 24 24 24 24 24 24 24 25 25 25
16 16 17 17 17 17 17 18 18 18 18 19 19 19 19 20 20 20 20 20 20 20 20 20 20 20 20 20 20 21 21 21 21 21 21 22 22 22 23 23 24 25 25 24 23 22 22 22 22 22 22 23 23 23 23 23 23 23 24 24 24 24 24 24 24 25 25 26 26
16 17 17 17 17 17 17 17 17 17 18 18 18 18 19 19 20 20 20 20 20 19 19 19 19 19 19 19 19 20 20 20 20 20 21 21 21 22 22 23 24 24 24 23 22 21 21 22 22 22 23 23 23 23 23 23 23 24 24 25 25 25 26 26 27 27 27 26 26
16 16 17 17 17 17 17 16 16 17 17 17 18 18 18 19 19 19 19 19 19 18 18 18 18 18 18 19 19 19 20 20 20 20 20 20 21 22 22 23 23 24 23 22 21 21 21 22 23 23 23 24 24 24 24 23 24 25 25 25 26 26 27 27 27 27 27 27 27
16 16 16 16 16 16 16 16 16 16 16 17 17 17 18 18 18 18 18 18 18 18 18 18 18 18 19 19 19 19 20 20 20 20 20 20 21 22 23 23 23 23 22 22 21 22 22 23 24 24 24 24 24 24 24 24 25 25 26 26 26 27 27 27 27 27 28 28 28
15 15 16 16 16 15 15 15 15 16 16 17 17 17 17 18 18 18 17 17 17 17 17 17 18 18 19 19 20 20 20 20 20 20 21 21 22 22 23 23 23 23 22 22 22 23 24 24 24 24 25 25 25 25 26 26 25 25 25 26 26 26 27 27 28 28 28 29 28
15 15 15 15 15 15 15 15 16 16 17 17 17 17 17 17 17 17 17 16 16 16 16 17 17 18 19 19 20 20 21 21 21 22 22 22 23 23 24 24 24 24 24 23 24 24 24 24 24 25 25 25 26 26 26 26 25 25 25 26 26 27 27 27 28 28 29 29 29
14 14 14 14 14 15 15 15 16 17 17 17 17 18 18 18 17 17 17 17 17 17 18 18 19 20 20 21 21 21 22 22 23 24 24 24 24 25 25 26 27 26 26 25 25 25 25 25 25 25 26 26 26 26 26 26 25 26 26 26 27 27 27 27 27 28 28 28 28
13 13 14 14 14 15 15 16 17 17 18 18 18 18 19 19 18 17 17 18 18 19 20 21 22 22 22 23 23 23 23 24 25 26 26 26 26 26 28 29 29 29 28 27 26 26 26 26 26 26 26 26 26 25 25 25 25 25 26 26 27 27 27 27 27 27 27 27 28
12 13 13 14 15 15 16 17 18 18 19 19 19 19 19 20 19 19 19 19 21 22 23 24 24 24 25 25 25 25 25 25 26 27 27 27 27 28 29 30 31 31 30 29 28 27 27 27 27 26 26 26 26 26 25 25 24 24 25 26 26 26 26 26 26 26 27 27 27
12 13 14 14 15 16 17 17 18 19 20 20 20 20 21 21 21 21 21 21 22 23 25 26 26 26 26 27 27 27 28 27 27 27 28 28 28 28 29 30 31 32 31 30 29 29 28 28 27 27 26 26 26 26 25 25 25 25 25 26 26 27 27 26 26 26 26 26 27
13 13 14 15 15 16 17 18 19 20 21 21 22 22 23 23 23 22 23 23 23 24 25 26 26 27 27 28 28 29 29 29 29 28 28 29 29 28 28 29 30 31 31 31 30 29 28 28 28 27 27 26 26 26 25 25 25 26 26 26 26 27 27 26 26 26 26 26 27
13 14 14 15 16 17 18 19 20 21 22 23 23 24 24 24 24 24 24 24 25 25 25 26 27 27 28 28 28 29 30 30 30 29 29 29 29 29 28 28 29 31 31 31 30 29 28 28 28 28 28 27 26 26 25 25 26 26 27 27 27 27 27 27 27 26 27 27 27
14 14 15 16 17 18 19 20 21 23 23 24 24 24 24 25 25 25 26 26 26 26 26 26 27 28 28 28 27 28 29 30 30 30 30 30 29 29 28 28 29 31 31 31 29 29 28 28 29 29 28 27 27 26 25 25 25 26 27 27 27 27 27 28 27 27 28 28 28
Wind_Direction
151 148 146 151 157 162 165 168 174 182 190 196 200 203 208 213 217 214 205 190 194 276 292 295 318 335 337 329 319 314 311 308 304 303 302 303 305 311 315 315 312 307 303 303 305 308 310 314 313 310 308 305 305 306 307 307 304 299 292 285 283 282 281 279 279 281 282 283 283
132 134 138 144 150 156 162 168 177 186 192 196 199 204 210 216 195 121 81 42 352 334 333 340 358 1 353 340 330 321 314 309 306 304 303 303 305 309 312 314 313 311 310 310 311 314 316 320 319 318 317 315 312 309 306 304 301 295 289 284 281 280 278 277 279 281 283 284 284
113 117 121 125 128 129 129 128 128 126 120 110 104 95 85 76 68 64 60 57 53 49 47 45 47 47 43 33 18 355 338 331 329 331 330 328 326 324 322 322 321 320 320 321 322 323 323 322 320 319 318 317 313 308 304 301 298 293 288 284 282 280 279 279 282 284 285 284 284
94 96 99 100 101 100 99 97 94 91 88 86 86 84 82 80 78 78 79 80 79 77 75 75 77 79 81 79 74 64 45 27 17 11 6 1 356 351 347 342 339 335 332 330 329 327 325 322 316 312 309 308 305 302 300 298 296 293 290 289 287 285 284 284 286 287 287 286 286
87 89 90 91 91 91 90 90 88 86 85 84 85 85 83 82 81 82 84 84 82 80 80 80 80 79 75 70 62 51 36 23 13 6 2 359 355 352 350 349 349 347 343 337 332 327 323 319 311 304 301 301 299 298 298 298 296 295 295 295 294 292 291 289 289 289 289 288 287
86 87 88 89 89 89 89 89 88 87 85 85 85 83 81 79 79 78 78 76 75 73 70 66 64 60 55 45 34 23 12 4 358 352 349 347 345 344 344 345 347 348 348 345 337 327 317 312 304 300 299 299 298 299 301 301 299 299 299 300 299 299 297 295 293 292 290 287 286
84 84 85 86 87 88 88 88 89 88 86 84 81 78 76 76 75 74 72 72 70 67 61 56 52 46 38 29 19 10 2 357 352 348 346 344 342 341 341 342 343 346 349 350 346 335 322 311 302 299 299 298 298 300 302 303 301 300 300 301 303 303 302 300 299 296 292 288 287
84 84 84 85 86 86 86 86 85 84 82 79 76 74 73 72 71 70 68 65 62 58 55 52 47 41 36 31 26 21 15 9 6 1 356 351 348 345 343 343 343 345 347 348 347 344 336 325 312 303 299 299 299 301 303 305 304 302 301 301 303 304 304 302 301 299 296 292 289
82 82 82 83 83 83 83 82 81 80 77 74 72 70 68 66 65 62 58 55 53 52 51 48 43 38 36 33 30 25 21 16 12 10 5 0 357 353 350 348 346 345 345 344 343 342 339 335 326 314 305 301 301 303 305 306 305 304 303 302 303 303 304 304 303 302 300 297 294
79 79 79 79 79 79 80 79 78 76 73 70 67 65 62 60 56 52 49 46 45 44 42 38 33 29 27 25 22 18 14 10 7 4 2 0 358 356 354 351 348 346 343 341 338 336 335 335 333 326 318 312 309 309 309 308 308 306 305 304 303 303 303 304 304 304 303 301 298
76 75 75 74 74 74 75 74 71 68 65 62 59 56 53 50 46 42 38 34 33 33 31 26 21 17 15 13 10 7 3 359 356 354 352 351 350 349 348 347 345 343 341 339 336 334 332 331 331 329 325 322 319 318 317 315 312 310 307 305 304 303 302 303 303 304 303 302 299
73 72 71 70 69 68 67 65 62 59 56 53 50 47 43 40 36 31 26 22 23 23 21 17 13 10 8 5 2 358 354 351 348 346 344 343 342 341 340 339 339 338 337 336 334 332 330 329 327 325 323 322 321 321 321 320 317 313 309 306 306 304 302 302 302 302 302 301 298
71 69 68 66 64 63 61 59 55 51 48 45 41 38 35 32 28 22 18 16 15 14 12 9 7 5 2 359 356 352 349 346 344 342 340 339 337 336 335 335 334 334 333 332 331 331 329 327 325 322 320 318 318 318 319 320 319 315 311 308 305 303 301 300 300 299 300 299 296
69 67 64 62 60 58 55 52 48 44 41 37 34 30 26 24 20 16 12 10 9 6 4 1 0 360 358 355 351 348 345 343 341 339 337 336 335 334 334 333 332 332 331 330 329 329 329 327 325 323 320 317 315 314 313 314 315 314 312 308 305 301 299 298 296 296 296 295 292
67 64 61 58 56 53 50 47 43 39 35 32 27 23 20 17 14 10 7 5 3 1 358 356 355 354 353 350 347 344 342 340 339 338 336 335 334 334 334 333 332 331 331 329 328 327 328 328 327 325 323 320 316 313 311 310 311 311 311 308 303 299 297 295 294 294 293 291 290
63 59 56 53 51 48 45 42 38 34 30 26 22 18 14 12 9 6 3 1 359 356 355 353 351 349 347 346 344 342 341 340 339 339 339 338 336 335 334 333 333 332 331 329 327 326 326 326 327 327 326 324 321 317 314 312 310 310 309 307 303 298 295 294 293 291 290 288 287
57 54 50 48 45 43 40 37 33 29 25 21 17 14 11 8 5 3 2 359 356 354 353 352 349 347 346 345 344 343 343 342 342 343 342 341 340 337 335 334 333 331 330 329 327 326 325 325 326 327 327 327 325 323 320 317 315 313 311 307 302 298 295 294 292 290 288 286 284
51 48 45 42 40 37 34 30 27 23 20 16 13 11 8 6 4 3 1 359 357 355 354 351 350 349 348 348 347 347 347 346 345 345 344 342 340 338 335 333 331 329 328 327 326 325 325 325 325 326 327 327 326 325 324 322 319 317 314 309 303 298 295 294 292 290 287 285 283
46 43 40 37 34 31 28 25 22 19 16 14 12 10 9 8 6 5 3 2 1 359 356 354 352 351 351 351 351 351 350 350 347 345 343 341 339 337 335 333 330 328 327 326 325 324 324 324 325 326 326 326 325 325 324 322 321 319 316 312 305 299 295 294 293 291 288 286 284
42 38 35 32 29 26 24 22 20 18 16 14 13 13 13 12 10 9 9 8 5 2 360 358 356 355 355 354 353 354 353 352 349 347 343 341 339 338 336 334 331 329 328 327 326 326 326 326 326 326 326 325 324 323 322 321 320 319 316 312 307 301 297 296 294 292 289 287 285
38 34 31 28 25 24 23 21 20 19 18 18 18 18 17 16 15 15 14 11 8 6 5 4 2 1 359 358 357 356 355 354 352 349 346 343 341 340 338 335 333 330 328 328 328 329 329 329 328 327 326 324 322 321 320 319 318 316 314 311 308 303 299 296 294 292 289 287 285
34 31 28 27 25 25 24 24 23 23 24 24 23 23 22 21 21 20 18 15 13 11 10 9 7 6 4 2 360 358 356 354 352 350 347 345 343 341 339 336 334 332 330 330 331 331 331 330 329 327 325 323 320 319 318 316 315 313 311 309 307 304 301 298 295 292 289 287 285
32 30 29 29 29 29 29 29 29 30 30 30 29 27 26 25 24 23 21 18 16 14 13 11 9 7 6 4 1 358 355 352 350 349 347 345 343 341 339 337 335 333 332 331 332 332 331 329 327 325 323 321 319 317 315 313 312 310 309 307 306 304 302 300 297 294 291 288 285
33 33 33 33 34 35 36 36 36 36 35 34 32 30 27 25 23 21 19 17 15 13 11 9 8 6 5 3 1 358 355 352 349 347 346 344 343 341 339 337 335 334 332 331 331 330 329 326 324 322 320 319 317 315 313 311 310 308 307 306 305 304 302 300 298 296 293 290 287
37 38 39 39 39 40 40 40 38 37 35 33 30 27 25 22 19 17 15 14 12 11 9 7 5 4 2 0 359 357 354 352 350 347 345 343 342 340 339 337 335 333 331 330 329 327 325 322 320 319 317 316 315 313 311 310 308 307 306 304 304 303 302 300 299 296 294 292 289
41 42 42 42 41 41 39 37 35 33 30 27 25 22 20 17 15 13 11 10 9 7 6 4 3 1 359 358 356 354 353 351 349 347 344 342 340 339 338 337 335 333 331 329 327 325 322 320 318 317 316 314 313 312 311 309 307 306 305 303 302 301 300 299 298 297 295 293 291
41 41 41 40 39 37 35 32 30 27 25 22 19 17 15 13 11 9 8 6 5 4 2 1 360 358 356 355 353 352 350 349 347 345 343 341 339 338 336 335 333 332 330 328 326 324 321 319 318 317 315 314 313 311 310 308 306 305 304 302 301 299 298 297 296 295 294 293 291
37 36 36 35 34 32 30 27 25 22 20 17 15 12 10 8 7 5 4 3 1 0 359 358 356 355 353 352 350 348 346 345 343 342 339 338 336 335 333 332 330 329 328 326 324 321 319 318 317 316 315 314 312 310 308 306 304 303 301 300 299 297 296 294 293 293 292 291 290
32 31 30 29 28 27 25 22 20 17 15 12 10 7 5 4 3 2 0 359 358 357 355 353 352 351 349 347 345 343 342 340 339 337 335 333 332 330 329 327 326 326 325 324 320 318 316 315 314 314 313 312 310 308 305 303 301 300 298 297 295 294 293 292 291 290 289 289 289
29 27 26 24 23 22 20 18 15 12 9 7 4 2 0 359 358 357 356 354 353 352 350 348 347 345 343 341 339 337 336 334 333 332 330 328 325 324 323 322 322 322 322 321 319 316 314 312 312 311 310 309 307 305 302 300 298 296 295 293 291 290 289 289 288 287 287 287 287
25 23 21 20 19 17 15 12 9 6 3 1 359 357 356 355 354 353 351 349 347 346 345 344 341 339 337 335 334 332 330 329 329 327 325 323 320 319 319 318 318 318 319 319 317 314 312 311 310 309 309 308 306 303 300 298 296 294 292 290 289 287 286 286 285 284 284 284 284
21 19 17 15 13 11 9 6 3 0 358 356 355 353 352 351 349 348 347 346 344 342 341 339 337 335 333 332 330 329 327 326 325 324 322 320 318 317 316 316 316 316 317 317 315 313 312 311 310 309 309 308 306 303 300 297 295 293 290 288 286 285 284 283 282 281 281 280 281
16 13 11 9 7 5 2 360 358 355 354 353 352 351 349 348 346 346 346 344 342 340 337 336 334 332 331 330 328 328 327 325 324 323 322 321 319 318 316 316 315 316 316 315 314 314 313 312 311 310 309 308 307 304 302 299 296 293 291 288 287 286 284 282 280 279 278 277 277
9 7 5 3 1 359 357 355 354 352 351 351 351 350 348 347 345 345 344 343 341 337 335 334 332 331 330 329 329 328 327 326 325 324 324 323 321 320 318 316 316 316 317 316 315 314 313 312 311 311 310 310 308 306 304 301 298 295 292 290 288 287 286 284 282 280 279 277 275
3 0 359 357 356 354 353 352 351 350 350 350 349 348 348 347 345 345 344 342 339 336 335 334 333 332 332 332 331 330 328 327 326 326 326 325 323 321 319 318 318 318 319 318 317 316 314 313 312 312 312 311 309 307 305 302 299 296 294 292 290 289 288 287 285 283 281 279 277
357 355 353 352 351 351 350 350 350 350 350 350 349 348 347 347 346 346 344 342 339 337 336 335 335 335 334 334 333 331 330 328 327 327 327 326 325 323 321 320 320 320 320 319 318 317 316 315 314 314 313 312 310 308 305 303 300 297 296 294 293 291 290 289 287 285 283 281 279
353 351 349 348 349 348 348 349 349 349 350 349 349 347 347 346 346 346 345 343 340 338 337 337 337 336 336 335 333 331 330 329 328 327 326 326 325 324 322 321 320 320 321 320 319 318 317 316 316 315 315 313 311 309 306 304 301 298 297 296 294 293 292 291 289 287 285 282 280
349 347 346 346 346 347 347 348 349 349 349 349 348 347 347 346 345 345 344 343 341 339 337 337 336 336 335 334 332 330 329 329 328 327 326 325 325 324 322 320 319 319 320 320 320 318 318 317 316 316 316 314 312 310 307 305 302 300 298 297 296 295 294 293 291 289 286 284 282
345 345 345 345 346 346 347 348 349 349 349 348 347 346 346 345 344 343 342 342 341 339 337 336 335 334 334 333 331 329 328 328 328 327 326 325 324 323 321 319 317 318 318 319 319 318 317 317 316 316 316 314 312 310 308 305 303 301 300 299 298 297 296 295 293 291 289 287 286
344 344 344 345 346 346 347 347 348 349 348 347 346 345 344 343 342 341 340 340 339 339 337 335 334 333 333 332 330 328 327 327 328 327 326 325 324 323 321 318 317 317 317 318 318 317 317 317 316 316 316 315 313 311 309 306 304 302 301 301 300 299 298 297 295 293 292 291 289
344 344 345 345 346 346 347 347 347 347 346 346 345 344 342 341 339 339 338 338 338 337 336 334 332 332 331 330 329 327 326 326 326 326 326 325 324 322 321 319 317 317 317 318 317 317 316 316 315 315 315 314 313 311 309 307 305 303 302 301 301 300 299 298 296 294 292 292 291